Weather History for Luxor, Egypt

Change the Weather History Date:

Wednesday, December 5, 2012

  Actual Average Record
Temperature  
Mean Temperature 68 °F -  
Max Temperature 78 °F 72 °F 87 °F (2008)
Min Temperature 57 °F 46 °F 41 °F (1999)
Cooling Degree Days 2    
Growing Degree Days 18 (Base 50)    
Moisture  
Dew Point 51 °F    
Average Humidity 54    
Maximum Humidity 72    
Minimum Humidity 37    
Precipitation  
Precipitation 0.00 in 0.00 in - ()
Sea Level Pressure  
Sea Level Pressure 29.92 in    
Wind  
Wind Speed 2 mph ()    
Max Wind Speed 5 mph    
Max Gust Speed -    
Visibility 5.5 miles    
Events      
Averages and records for this station are not official NWS values.
T = Trace of Precipitation, MM = Missing Value Source: Averaged Metar Reports

Daily Weather History Graph

Daily Weather History Graph

Search for Another Location

Airport:

Trip Planner

Search our weather history database for the weather conditions in past years. The results will help you decide how hot, cold, wet, or windy it might be!

Date:

Astronomy

Dec. 05, 2012 Rise Set
Actual Time 6:21 AM EET 4:58 PM EET
Civil Twilight 5:56 AM EET 5:23 PM EET
Nautical Twilight 5:28 AM EET 5:51 PM EET
Astronomical Twilight 5:00 AM EET 6:19 PM EET
Moon 10:59 PM EET (12/5) 10:59 AM EET (12/5)
Length of Visible Light 11h 26m
Length of Day
10h 36m
Waning Gibbous, 63% of the Moon is Illuminated
Dec 5
Waning Gibbous
Dec 6
Last Quarter
Dec 13
New
Dec 20
First Quarter
Dec 28
Full

Hourly Weather History & Observations

Time (EET) Temp. Dew Point Humidity Pressure Visibility Wind Dir Wind Speed Gust Speed Precip Events Conditions
12:00 AM 68.0 °F 48.2 °F 49% 29.89 in - NNW 3.5 mph - N/A   Clear
1:00 AM 66.2 °F 46.4 °F 49% 29.89 in - NW 2.3 mph - N/A   Clear
2:00 AM 65 °F 47 °F 42% 29.89 in 6 mi NNW 2.3 mph - -   Scattered Clouds
2:00 AM 66.2 °F 48.2 °F 52% 29.89 in - NNW 2.3 mph - N/A   Clear
3:00 AM 64.4 °F 46.4 °F 52% 29.86 in - Calm Calm - N/A   Clear
4:00 AM 62.6 °F 46.4 °F 55% 29.89 in - Calm Calm - N/A   Clear
5:00 AM 62.6 °F 48.2 °F 59% 29.89 in - SW 2.3 mph - N/A   Clear
6:00 AM 57.2 °F 48.2 °F 72% 29.92 in - WSW 4.6 mph - N/A   Clear
7:00 AM 59.0 °F 46.4 °F 63% 29.92 in - Calm Calm - N/A   Clear
8:00 AM 62 °F 47 °F 49% 29.94 in 6 mi SSW 2.3 mph - -   Mostly Cloudy
8:00 AM 62.6 °F 48.2 °F 59% 29.92 in - SSW 2.3 mph - N/A   Clear
9:00 AM 66.2 °F 50.0 °F 56% 29.95 in 3.7 mi SW 2.3 mph - N/A   Unknown
10:00 AM 71.6 °F 51.8 °F 50% 29.95 in - WSW 4.6 mph - N/A   Clear
11:00 AM 73.4 °F 53.6 °F 50% 29.95 in - West 2.3 mph - N/A   Clear
12:00 PM 75.2 °F 53.6 °F 47% 29.95 in - NNW 2.3 mph - N/A   Clear
1:00 PM 77.0 °F 53.6 °F 44% 29.92 in - NNW 3.5 mph - N/A   Clear
2:00 PM 76 °F 55 °F 37% 29.91 in 6 mi NNW 3.5 mph - -   Mostly Cloudy
2:00 PM 77.0 °F 55.4 °F 47% 29.92 in - NNW 3.5 mph - N/A   Clear
4:00 PM 73.4 °F 53.6 °F 50% 29.92 in - NNW 4.6 mph - N/A   Clear
5:00 PM 71.6 °F 53.6 °F 53% 29.92 in - Calm Calm - N/A   Clear
6:00 PM 69.8 °F 53.6 °F 56% 29.92 in - Calm Calm - N/A   Clear
7:00 PM 69.8 °F 53.6 °F 56% 29.92 in - Calm Calm - N/A   Clear
8:00 PM 69 °F 54 °F 50% 29.94 in 6 mi Calm Calm - -   Mostly Cloudy
8:00 PM 68.0 °F 53.6 °F 60% 29.95 in - Calm Calm - N/A   Clear
9:00 PM 66.2 °F 55.4 °F 68% 29.98 in - WNW 2.3 mph - N/A   Clear
10:00 PM 66.2 °F 53.6 °F 64% 29.98 in - Calm Calm - N/A   Clear
11:00 PM 64.4 °F 53.6 °F 68% 29.98 in - NW 3.5 mph - N/A   Clear